TimeMST,TemperatureF,Dew PointF,Humidity,Sea Level PressureIn,VisibilityMPH,Wind Direction,Wind SpeedMPH,Gust SpeedMPH,PrecipitationIn,Events,Conditions,WindDirDegrees,DateUTC
12:53 AM,18.0,15.1,88,30.42,10.0,West,6.9,-,N/A,,Clear,280,2013-02-15 07:53:00
1:53 AM,18.0,14.0,84,30.41,10.0,WNW,6.9,-,N/A,,Clear,290,2013-02-15 08:53:00
2:53 AM,18.0,14.0,84,30.40,10.0,WNW,6.9,-,N/A,,Clear,290,2013-02-15 09:53:00
3:53 AM,17.1,12.0,81,30.41,10.0,WNW,6.9,-,N/A,,Clear,290,2013-02-15 10:53:00
4:53 AM,17.1,12.0,81,30.42,10.0,WNW,4.6,-,N/A,,Scattered Clouds,300,2013-02-15 11:53:00
5:53 AM,19.0,14.0,81,30.42,10.0,West,5.8,-,N/A,,Overcast,280,2013-02-15 12:53:00
6:53 AM,19.0,14.0,81,30.43,10.0,West,5.8,-,N/A,,Overcast,270,2013-02-15 13:53:00
7:53 AM,21.9,16.0,78,30.44,10.0,West,6.9,-,N/A,,Overcast,270,2013-02-15 14:53:00
8:53 AM,28.0,19.0,69,30.42,10.0,WNW,10.4,-,N/A,,Mostly Cloudy,290,2013-02-15 15:53:00
9:53 AM,30.9,14.0,50,30.41,10.0,NW,11.5,-,N/A,,Clear,310,2013-02-15 16:53:00
10:53 AM,35.1,12.0,39,30.39,10.0,NW,11.5,-,N/A,,Clear,320,2013-02-15 17:53:00
11:53 AM,33.1,15.1,48,30.40,10.0,North,18.4,-,N/A,,Overcast,350,2013-02-15 18:53:00
12:53 PM,32.0,15.1,50,30.40,10.0,North,17.3,-,N/A,,Overcast,360,2013-02-15 19:53:00
1:53 PM,32.0,15.1,50,30.40,10.0,NNW,13.8,21.9,N/A,,Overcast,340,2013-02-15 20:53:00
2:53 PM,33.1,15.1,48,30.41,10.0,North,16.1,-,N/A,,Scattered Clouds,360,2013-02-15 21:53:00
3:53 PM,30.0,15.1,54,30.44,10.0,North,15.0,-,N/A,,Mostly Cloudy,350,2013-02-15 22:53:00
4:53 PM,28.9,15.1,56,30.44,10.0,North,11.5,-,N/A,,Clear,360,2013-02-15 23:53:00
5:53 PM,23.0,12.0,63,30.45,10.0,NNW,6.9,-,N/A,,Clear,340,2013-02-16 00:53:00
6:53 PM,21.0,12.9,71,30.45,10.0,NW,4.6,-,N/A,,Clear,320,2013-02-16 01:53:00
7:53 PM,21.9,14.0,72,30.43,10.0,WNW,3.5,-,N/A,,Clear,290,2013-02-16 02:53:00
8:53 PM,18.0,14.0,84,30.43,10.0,WSW,5.8,-,N/A,,Scattered Clouds,250,2013-02-16 03:53:00
9:53 PM,21.0,16.0,81,30.40,10.0,WSW,6.9,-,N/A,,Overcast,240,2013-02-16 04:53:00
10:53 PM,23.0,18.0,81,30.37,10.0,SW,5.8,-,N/A,,Overcast,220,2013-02-16 05:53:00
11:53 PM,23.0,17.1,78,30.34,10.0,SW,6.9,-,N/A,,Overcast,230,2013-02-16 06:53:00